Погода в Мирном

Россия / Республика Саха (Якутия)     62°32′27″N   113°58′43″E
темп.,
°C
ветер,
м/с
пор.,
м/с
влажн.,
%
обл.,
%
осадки,
мм/ч
давл.,
гПа
погр.,
м
26 июня, вс
вс2600:00+16юз289199 0.0 996180
03:00+14зюз289539 0.0 997184
06:00+16зюз2882100 0.0 997247
09:00+21зюз46555 0.0 997958
12:00+24ююз674297 0.0 9952421
15:00+20юз586294 0.3 9961077
18:00+21зюз585892 1.1 9951324
21:00+19юз377333 1.6 995504
27 июня, пн
пн2700:00+14ююз289540 0.4 994188
03:00+14юз3997100 0.4 994235
06:00+15юз389457 0.1 994395
09:00+17зюз488699 1.6 995685
12:00+20з4671100 1.6 9941240
15:00+25зсз464398 2.2 9942257
18:00+21з2564100 0.0 995277
21:00+20з1167100 0.1 99528
28 июня, вт
вт2800:00+17в118154 0.0 99611
03:00+16в489199 0.1 996272
06:00+14вюв3890100 0.0 996281
09:00+20ю3574100 0.1 994881
12:00+21ююз3569100 0.3 9941096
15:00+23з4768100 2.3 9941414
18:00+18ссв338496 0.6 996384
21:00+14ссв3487100 0.6 998283
29 июня, ср
ср2900:00+11св2291100 0.0 999181
03:00+10св1197100 0.0 100016
06:00+11всв119069 0.0 1001143
09:00+15зсз1274100 0.0 1002523
12:00+18зюз2365100 0.0 1002877
15:00+20зсз3465100 0.0 10021115
18:00+21з355666 0.0 10031511
21:00+18ссз126551 0.1 100339
30 июня, чт
чт3000:00+13ю117770 0.0 100311
03:00+12юз1180100 0.0 100411
06:00+14юз2569100 0.0 1004135
09:00+15з2767100 0.0 1005339
12:00+17зюз255911 0.0 1006382
15:00+21зсз374079 0.0 10051883
18:00+19зюз2553100 0.0 1006192
21:00+16сз116382 0.0 100614